This is the latest recevied weather packets stored in our database for station/object K5YNC. If no packets are shown the sender has not sent any weather packets the latest 10 day(s).
| Time | Temp. | Humidity | Pressure | Rain* | Wind** | Luminosity | Snow |
|---|---|---|---|---|---|---|---|
| 1777775484 | 14.44° C | 77% | 1020.7 hPa | 0 mm | - | 0 W/m² | - |
| 1777775180 | 15° C | 76% | 1020.7 hPa | 0 mm | - | 0 W/m² | - |
| 1777774874 | 15° C | 75% | 1020.7 hPa | 0 mm | - | 0 W/m² | - |
| 1777774572 | 15° C | 74% | 1020.6 hPa | 0 mm | - | 0 W/m² | - |
| 1777774268 | 15.56° C | 72% | 1020.6 hPa | 0 mm | - | 0 W/m² | - |
| 1777773965 | 16.11° C | 70% | 1020.7 hPa | 0 mm | - | 0 W/m² | - |
| 1777773663 | 16.67° C | 67% | 1020.3 hPa | 0 mm | - | 0 W/m² | - |
| 1777773359 | 16.67° C | 66% | 1020.6 hPa | 0 mm | - | 0 W/m² | - |
| 1777773056 | 16.67° C | 66% | 1020.6 hPa | 0 mm | - | 0 W/m² | - |
| 1777772752 | 17.22° C | 66% | 1020.4 hPa | 0 mm | - | 0 W/m² | - |
| 1777772450 | 17.22° C | 65% | 1020.4 hPa | 0 mm | - | 0 W/m² | - |
| 1777772147 | 17.78° C | 63% | 1020.3 hPa | 0 mm | - | 0 W/m² | - |
| 1777771845 | 17.78° C | 62% | 1020.4 hPa | 0 mm | - | 0 W/m² | - |
| 1777771542 | 18.33° C | 62% | 1020.3 hPa | 0 mm | - | 1 W/m² | - |
| 1777771238 | 18.33° C | 63% | 1020.4 hPa | 0 mm | - | 1 W/m² | - |
| 1777770935 | 18.89° C | 61% | 1020.3 hPa | 0 mm | - | 3 W/m² | - |
| 1777770633 | 18.89° C | 60% | 1020.2 hPa | 0 mm | - | 4 W/m² | - |
| 1777770329 | 19.44° C | 60% | 1020.2 hPa | 0 mm | - | 7 W/m² | - |
| 1777770026 | 20° C | 57% | 1020.1 hPa | 0 mm | - | 10 W/m² | - |
| 1777769723 | 20.56° C | 54% | 1020.1 hPa | 0 mm | - | 13 W/m² | - |
| 1777769421 | 21.11° C | 52% | 1020.2 hPa | 0 mm | - | 15 W/m² | - |
| 1777769116 | 21.11° C | 49% | 1020.1 hPa | 0 mm | - | 18 W/m² | - |
| 1777768815 | 21.67° C | 49% | 1020.1 hPa | 0 mm | - | 21 W/m² | - |
| 1777768511 | 21.67° C | 48% | 1020.2 hPa | 0 mm | - | 23 W/m² | - |
| 1777768209 | 22.22° C | 47% | 1020.2 hPa | 0 mm | - | 25 W/m² | - |
* Rain latest hour (hover to see other rain measurements)
** Current wind speed in m/s (hover to see current wind gust speed)